[[{"header":{"parameterUnit":"m.s-1","parameterCategory":1,"la1":30.2991,"la2":30.254,"lo1":-89.0895,"lo2":-89.0444,"dy":0.0017,"dx":0.0017,"nx":28,"ny":28,"refTime":"2025-03-11T09:00:00:Z","depth":0,"parameterNumber":2,"parameterNumberName":"U-component_of_WINDS"},"data":[0,0,0,0,0,0,0,0,0,0,0,0,0,0,0,0,0,0,0,0,0,0,0,0,0,0,0,0,0,0,0,0,0,0,0,0,0,0,0,0,0,0,0,0,0,0,0,0,0,0,0,0,0,0,0,0,0,0,4.2742,4.2742,0,4.2802,4.2803,4.2803,4.2752,4.275,4.2748,4.2746,4.2807,4.281,4.2814,0,0,0,0,0,0,0,0,0,0,0,0,0,4.258,4.2583,4.2741,4.2742,4.2743,4.2802,4.2803,4.2803,4.2753,4.275,4.2747,4.2745,4.2806,4.281,4.2814,0,0,0,0,0,0,0,0,0,0,0,0,0,4.2646,4.2584,4.2741,4.2725,4.2724,4.2802,4.2803,4.2804,4.2753,4.275,4.2747,4.2744,4.2804,4.2809,4.2815,4.2912,0,0,4.2831,4.2833,0,0,0,0,0,0,0,0,4.2643,4.2652,4.2726,4.2726,4.2725,4.2766,4.2768,4.284,4.2754,4.2742,4.2746,4.2742,4.2796,4.2802,4.282,4.2914,4.2917,4.2832,4.2835,4.2837,4.2839,0,0,0,0,0,0,0,4.2638,4.2649,4.2765,4.2728,4.2727,4.2714,4.2719,4.2781,4.2786,4.2743,4.2739,4.2747,4.2795,4.2815,4.2821,4.2918,4.2831,4.2836,4.284,4.2842,4.3092,4.3096,0,0,0,0,0,0,4.2635,4.2646,4.2763,4.2767,4.2675,4.2719,4.2726,4.2756,4.2785,4.2786,4.275,4.2745,4.2807,4.2815,4.2823,4.2936,4.2837,4.2842,4.2845,4.3089,4.3093,4.3097,0,0,0,0,0,0,4.2632,4.2646,4.2761,4.2706,4.2719,4.2725,4.276,4.2759,4.2779,4.279,4.2791,4.277,4.2805,4.2815,4.2889,4.2938,4.2845,4.285,4.3085,4.309,4.3095,4.3165,0,0,0,0,0,0,4.2628,4.2646,4.2683,4.2707,4.2722,4.2827,4.2763,4.2763,4.2789,4.2782,4.2809,4.281,4.2803,4.2882,4.2895,4.2943,4.2854,4.3081,4.3087,4.3093,4.3159,4.3172,4.3184,0,0,0,0,0,4.2622,4.2701,4.2685,4.27,4.2769,4.283,4.2839,4.283,4.2793,4.283,4.2837,4.281,4.2931,4.289,4.2904,4.2955,4.3078,4.3085,4.3093,4.3153,4.3169,4.3183,0,0,0,0,0,0,4.2682,4.2703,4.2687,4.2775,4.2801,4.2822,4.2868,4.2848,4.2885,4.2877,4.2863,4.287,4.2947,4.2959,4.2913,4.3049,4.2998,4.3009,4.3039,4.3054,4.3067,4.3062,4.2858,0,0,0,0,0,4.2706,4.2754,4.277,4.2847,4.2861,4.2862,4.2889,4.2879,4.2905,4.2916,4.2928,4.2955,4.2998,4.3027,4.3068,4.316,4.3164,4.3202,4.3215,4.3225,4.3234,4.3281,4.3298,4.3122,4.3122,4.3122,0,0,4.2755,4.2773,4.2804,4.2859,4.2878,4.2927,4.2872,4.2927,4.2963,4.2924,4.2994,4.3005,4.3033,4.3116,4.3153,4.3127,4.3284,4.3235,4.3243,4.3247,4.3291,4.3308,4.3322,4.3127,4.3127,4.3126,0,0,4.2869,4.2888,4.2953,4.2973,4.3003,4.3003,4.3019,4.3042,4.3047,4.3118,4.3089,4.3132,4.3208,4.3228,4.3249,4.337,4.3345,4.3384,4.3449,4.3495,4.3508,4.3521,4.3562,4.3577,4.3393,4.3393,4.3393,0,4.2926,4.3,4.2989,4.3046,4.307,4.3037,4.3102,4.3122,4.3163,4.318,4.3152,4.3245,4.3262,4.3348,4.3378,4.3396,4.3412,4.338,4.3508,4.352,4.3531,4.357,4.3585,4.3397,4.3397,4.3397,4.3396,0,4.3067,4.3119,4.3168,4.3208,4.3238,4.3299,4.3296,4.3327,4.3315,4.3318,4.3389,4.3408,4.3452,4.3472,4.3461,4.3556,4.3539,4.351,4.3457,4.3552,4.3588,4.3603,4.3404,4.3402,4.3401,4.34,0,0,4.322,4.3254,4.3272,4.3289,4.3319,4.3358,4.3416,4.3459,4.3485,4.3515,4.3562,4.3627,4.3599,4.3622,4.3613,4.3654,4.3745,4.3619,4.3619,4.364,4.3849,4.3869,4.3887,4.373,4.3733,4.3735,4.3846,0,4.3334,4.3436,4.3427,4.3523,4.3569,4.3539,4.3589,4.3613,4.3617,4.3656,4.3661,4.3706,4.3667,4.3681,4.372,4.3726,4.3787,4.3718,4.3772,4.3774,4.3764,4.3906,4.3929,4.4032,4.386,4.3862,4.3864,0,4.348,4.3514,4.3615,4.3636,4.3655,4.3701,4.3738,4.3777,4.3802,4.3802,4.3828,4.3811,4.3868,4.3816,4.3894,4.3847,4.3869,4.3875,4.3879,4.3882,4.3823,4.3911,4.4065,4.408,4.3887,4.3885,4.3883,0,4.3579,4.3651,4.3719,4.3735,4.3762,4.3795,4.3807,4.383,4.3855,4.3888,4.3903,4.3943,4.3963,4.3993,4.3987,4.395,4.4066,4.4014,4.4066,4.4066,4.409,4.4088,4.4247,4.4108,4.4108,4.4107,4.4107,0,4.3706,4.3768,4.3764,4.3806,4.3874,4.3863,4.3931,4.3939,4.3959,4.4001,4.3978,4.4018,4.4008,4.4048,4.4043,4.4107,4.4117,4.4117,4.4115,4.4118,4.4118,4.4131,4.4122,4.4111,4.411,4.411,4.4109,0,4.3827,4.3827,4.3899,4.3919,4.3925,4.3974,4.399,4.4029,4.4032,4.4086,4.4098,4.4101,4.4146,4.4143,4.4194,4.4191,4.4269,4.4259,4.426,4.4257,4.4309,4.4303,4.448,4.4502,4.435,4.4352,4.4353,0,4.3906,4.3953,4.3978,4.4004,4.4019,4.4063,4.4088,4.408,4.4107,4.4139,4.4173,4.4216,4.425,4.4323,4.4329,4.4368,4.4357,4.4417,4.4363,4.4364,4.4355,4.4351,4.4355,4.4427,4.4428,4.443,4.4431,0,4.4047,4.4044,4.4083,4.4121,4.4152,4.4181,4.4208,4.4231,4.4225,4.4257,4.4303,4.4329,4.438,4.4422,4.4459,4.447,4.4449,4.4448,4.4462,4.4464,4.4462,4.4461,4.4287,4.4444,4.4442,4.4441,4.4441,4.444,4.4148,4.4187,4.421,4.4253,4.4273,4.4298,4.4335,4.4342,4.438,4.4421,4.4414,4.4464,4.4486,4.4533,4.4548,4.4587,4.4565,4.4586,4.459,4.4595,4.4599,4.4458,4.4594,4.4594,4.4593,4.4593,4.4593,0,4.4285,4.4298,4.4338,4.4376,4.4409,4.4387,4.4416,4.4444,4.4489,4.4512,4.4546,4.4597,4.4637,4.4647,4.4685,4.4714,4.4705,4.4724,4.4721,4.4723,4.4618,4.4601,4.4731,4.4731,4.4731,4.4731,4.4731,4.4731,4.436,4.4425,4.4425,4.4498,4.4511,4.4561,4.4578,4.4601,4.4619,4.4677,4.4711,4.4717,4.4734,4.4773,4.4808,4.481,4.4824,4.4847,4.4844,4.4745,4.4731,4.4718,4.4702,4.485,4.4851,4.4946,4.4947,4.4948]},{"header":{"parameterUnit":"m.s-1","parameterCategory":1,"la1":30.2991,"la2":30.254,"lo1":-89.0895,"lo2":-89.0444,"dy":0.0017,"dx":0.0017,"nx":28,"ny":28,"refTime":"2025-03-11T09:00:00:Z","depth":0,"parameterNumber":3,"parameterNumberName":"V-component_of_WINDS"},"data":[0,0,0,0,0,0,0,0,0,0,0,0,0,0,0,0,0,0,0,0,0,0,0,0,0,0,0,0,0,0,0,0,0,0,0,0,0,0,0,0,0,0,0,0,0,0,0,0,0,0,0,0,0,0,0,0,0,0,2.1625,2.1626,0,2.1642,2.1642,2.1642,2.1634,2.1634,2.1633,2.1633,2.1649,2.165,2.1651,0,0,0,0,0,0,0,0,0,0,0,0,0,2.1586,2.1587,2.1625,2.1626,2.1626,2.1642,2.1642,2.1642,2.1634,2.1634,2.1633,2.1633,2.1649,2.165,2.1651,0,0,0,0,0,0,0,0,0,0,0,0,0,2.1603,2.1587,2.1625,2.1624,2.1624,2.1642,2.1642,2.1642,2.1634,2.1634,2.1633,2.1632,2.1649,2.165,2.1651,2.1672,0,0,2.1655,2.1655,0,0,0,0,0,0,0,0,2.1602,2.1604,2.1624,2.1624,2.1624,2.1635,2.1634,2.1652,2.1634,2.163,2.1633,2.1632,2.1645,2.1647,2.1651,2.1672,2.1673,2.1655,2.1656,2.1656,2.1657,0,0,0,0,0,0,0,2.1601,2.1604,2.1632,2.1624,2.1624,2.1622,2.1623,2.1637,2.1641,2.1631,2.163,2.1632,2.1645,2.165,2.1651,2.1673,2.1655,2.1656,2.1657,2.1657,2.1711,2.1712,0,0,0,0,0,0,2.16,2.1603,2.1631,2.1632,2.1611,2.1623,2.1625,2.1632,2.1641,2.1642,2.1633,2.1632,2.1648,2.165,2.1652,2.1676,2.1656,2.1657,2.1658,2.1711,2.1711,2.1712,0,0,0,0,0,0,2.1599,2.1602,2.1631,2.1617,2.1621,2.1624,2.1633,2.1633,2.1638,2.1642,2.1643,2.1637,2.1648,2.165,2.1667,2.1676,2.1658,2.1659,2.171,2.1711,2.1712,2.1724,0,0,0,0,0,0,2.1598,2.1602,2.161,2.1618,2.1621,2.1645,2.1633,2.1634,2.164,2.1639,2.1647,2.1647,2.1647,2.1665,2.1668,2.1678,2.166,2.1709,2.171,2.1711,2.1723,2.1726,2.1728,0,0,0,0,0,2.1596,2.1613,2.1611,2.1614,2.1632,2.1646,2.1648,2.1648,2.1641,2.1649,2.1652,2.1647,2.1675,2.1666,2.167,2.168,2.1708,2.171,2.1711,2.1722,2.1725,2.1728,0,0,0,0,0,0,2.1607,2.1614,2.1611,2.1631,2.1638,2.1645,2.1655,2.1651,2.166,2.1659,2.1658,2.166,2.1677,2.168,2.1671,2.17,2.169,2.1693,2.1697,2.17,2.1703,2.1702,2.1661,0,0,0,0,0,2.1612,2.1623,2.1629,2.1645,2.1649,2.1651,2.1657,2.1657,2.1664,2.1666,2.167,2.1677,2.1687,2.1694,2.1704,2.1723,2.1725,2.1732,2.1735,2.1737,2.1739,2.1749,2.1752,2.1717,2.1717,2.1717,0,0,2.1622,2.1627,2.1634,2.1648,2.1653,2.1664,2.1654,2.1666,2.1674,2.1668,2.1684,2.1687,2.1694,2.1712,2.1721,2.1716,2.1748,2.1739,2.174,2.1741,2.175,2.1754,2.1757,2.1718,2.1718,2.1718,0,0,2.1645,2.1651,2.1665,2.167,2.1678,2.1679,2.1682,2.1689,2.1691,2.1707,2.1702,2.1712,2.1729,2.1735,2.174,2.1764,2.176,2.1767,2.178,2.179,2.1792,2.1795,2.1803,2.1806,2.1769,2.1769,2.1769,0,2.1656,2.1673,2.1673,2.1685,2.1691,2.1686,2.17,2.1705,2.1715,2.1719,2.1714,2.1735,2.174,2.1759,2.1765,2.1769,2.1773,2.1766,2.1792,2.1794,2.1797,2.1804,2.1808,2.177,2.177,2.177,2.177,0,2.1686,2.1698,2.1709,2.1719,2.1726,2.1739,2.174,2.1747,2.1745,2.1747,2.1762,2.1768,2.1778,2.1782,2.1781,2.1801,2.1797,2.1792,2.1782,2.1801,2.1808,2.1811,2.1771,2.1771,2.1771,2.177,0,0,2.1718,2.1727,2.173,2.1735,2.1742,2.1751,2.1764,2.1774,2.178,2.1787,2.1797,2.1812,2.1807,2.1812,2.1811,2.182,2.1838,2.1813,2.1813,2.1817,2.186,2.1863,2.1867,2.1835,2.1836,2.1837,2.1859,0,2.1741,2.1764,2.1763,2.1784,2.1794,2.1789,2.18,2.1806,2.1807,2.1816,2.1818,2.1828,2.1821,2.1824,2.1832,2.1834,2.1847,2.1833,2.1845,2.1845,2.1843,2.1871,2.1875,2.1896,2.1862,2.1862,2.1863,0,2.1772,2.178,2.1802,2.1807,2.1812,2.1822,2.183,2.1839,2.1845,2.1846,2.1851,2.1849,2.1861,2.1851,2.1868,2.1858,2.1863,2.1865,2.1865,2.1866,2.1855,2.1872,2.1903,2.1906,2.1867,2.1867,2.1866,0,2.1792,2.1808,2.1823,2.1827,2.1834,2.1841,2.1844,2.185,2.1855,2.1863,2.1866,2.1875,2.188,2.1887,2.1886,2.1879,2.1903,2.1893,2.1903,2.1903,2.1909,2.1908,2.194,2.1912,2.1912,2.1912,2.1912,0,2.1819,2.1832,2.1832,2.1841,2.1856,2.1855,2.1869,2.1872,2.1876,2.1885,2.1881,2.189,2.1889,2.1898,2.1897,2.1911,2.1913,2.1913,2.1913,2.1914,2.1914,2.1917,2.1915,2.1913,2.1913,2.1913,2.1912,0,2.1844,2.1844,2.186,2.1865,2.1867,2.1877,2.1881,2.189,2.1891,2.1902,2.1905,2.1907,2.1916,2.1917,2.1928,2.1928,2.1944,2.1942,2.1942,2.1941,2.1952,2.1951,2.1986,2.1991,2.196,2.1961,2.1961,0,2.186,2.187,2.1876,2.1882,2.1886,2.1895,2.1901,2.19,2.1906,2.1913,2.192,2.193,2.1937,2.1953,2.1955,2.1963,2.1961,2.1973,2.1963,2.1963,2.1961,2.196,2.1961,2.1975,2.1976,2.1976,2.1976,0,2.189,2.1889,2.1898,2.1906,2.1913,2.192,2.1926,2.193,2.193,2.1937,2.1947,2.1952,2.1964,2.1973,2.1981,2.1984,2.198,2.198,2.1982,2.1983,2.1982,2.1982,2.1947,2.1979,2.1978,2.1978,2.1978,2.1978,2.1911,2.1919,2.1924,2.1934,2.1938,2.1944,2.1951,2.1953,2.1961,2.197,2.1969,2.198,2.1985,2.1995,2.1999,2.2007,2.2003,2.2007,2.2008,2.2009,2.201,2.1981,2.2008,2.2008,2.2008,2.2008,2.2008,0,2.194,2.1942,2.1951,2.1959,2.1966,2.1962,2.1968,2.1974,2.1984,2.1989,2.1996,2.2007,2.2016,2.2018,2.2026,2.2032,2.2031,2.2034,2.2034,2.2034,2.2013,2.201,2.2036,2.2036,2.2036,2.2036,2.2036,2.2036,2.1955,2.1969,2.1969,2.1985,2.1987,2.1998,2.2002,2.2007,2.2011,2.2023,2.203,2.2031,2.2035,2.2044,2.2051,2.2051,2.2054,2.2059,2.2059,2.2039,2.2036,2.2033,2.203,2.206,2.206,2.2079,2.2079,2.2079]}]]